Location: South Tamworth Observatory
(43.8246°N, 71.3026°W)
Time: 01:15:58
(UTC-04:00)

Amateur Radio Satellites - All Passes

Search period start: 29 March 2017 00:45
Search period end: 30 March 2017 00:45
Location: South Tamworth Observatory, 43.8246°N, 71.3026°W

Satellite Date Start Highest point End Downlink Frequencies (MHz)
Time Altitude Azimuth
BUGSAT 1 29 Mar 00:48:16 00:51:54 28° 96° (E) 00:55:29 437.445
DX 1 29 Mar 01:02:18 01:06:36 61° 259° (WSW) 01:10:57 434.975-435.025
O/OREOS (USA 219) 29 Mar 01:04:37 01:07:46 18° 51° (NE) 01:10:54 437.305
Oscar 19 29 Mar 01:06:03 01:09:13 16° 90° (E) 01:12:23 437.125/150
BEESAT 29 Mar 01:09:05 01:10:22 11° 57° (ENE) 01:11:38 436.000
AIST 2D 29 Mar 01:16:08 01:18:19 16° 294° (WNW) 01:20:30 435.315
ITUPSAT 1 29 Mar 01:25:22 01:28:10 16° 60° (ENE) 01:30:59 437.325
50 SAT 29 Mar 01:28:23 01:30:27 15° 267° (W) 01:32:33 437.505
NANOSAT C BR1 29 Mar 01:30:13 01:33:55 30° 291° (WNW) 01:37:34 145.865
EO-79 29 Mar 01:36:42 01:40:08 24° 293° (WNW) 01:43:33 145.935-145.965
VELOX 1 29 Mar 01:36:50 01:38:46 13° 270° (W) 01:40:42 145.980
UKube-1 29 Mar 01:37:30 01:41:27 35° 262° (W) 01:45:27 .
Gurwin Techsat 1B 29 Mar 01:40:48 01:44:40 20° 92° (E) 01:48:31 435.225
Tancredo 1 29 Mar 01:48:53 01:52:05 74° 30° (NNE) 01:55:16 437.200
ISS 29 Mar 02:00:48 02:04:06 83° 31° (NNE) 02:07:24 437.550
POLYITAN 1 29 Mar 02:06:53 02:08:50 13° 299° (WNW) 02:10:47 437.675
QB50P2 29 Mar 02:12:23 02:13:31 11° 300° (WNW) 02:14:38 145.880/145.840
DUCHIFAT 1 29 Mar 02:20:10 02:21:33 11° 300° (WNW) 02:22:56 145.980
BUGSAT 1 29 Mar 02:23:43 02:27:10 25° 293° (WNW) 02:30:34 437.445
MOZHAYETS 4 29 Mar 02:36:44 02:40:42 30° 68° (ENE) 02:44:41
BEESAT 29 Mar 02:42:34 02:47:21 82° 75° (ENE) 02:52:09 436.000
O/OREOS (USA 219) 29 Mar 02:43:02 02:47:36 60° 250° (WSW) 02:52:06 437.305
Oscar 19 29 Mar 02:43:51 02:49:00 66° 287° (WNW) 02:54:08 437.125/150
AO-7 29 Mar 02:54:43 03:00:05 18° 90° (E) 03:05:24 .
ITAMSAT 1 29 Mar 02:58:40 03:02:01 17° 91° (E) 03:05:21 435.822/435.867
ITUPSAT 1 29 Mar 03:00:40 03:05:27 68° 257° (WSW) 03:10:14 437.325
Gurwin Techsat 1B 29 Mar 03:19:45 03:24:57 56° 289° (WNW) 03:30:08 435.225
Tancredo 1 29 Mar 03:25:58 03:27:50 15° 227° (SW) 03:29:42 437.200
KKS-1 29 Mar 03:35:14 03:39:00 27° 66° (ENE) 03:42:47 437.445
CUBESAT XI-V 29 Mar 03:36:43 03:40:11 22° 65° (ENE) 03:43:41 437.345
ISS 29 Mar 03:38:25 03:40:09 14° 228° (SW) 03:41:53 437.550
STARS 29 Mar 04:03:55 04:07:30 25° 66° (ENE) 04:11:05 437.465
AO-85 29 Mar 04:12:13 04:15:33 26° 45° (NE) 04:18:55 145.980
MOZHAYETS 4 29 Mar 04:13:47 04:17:48 29° 264° (W) 04:21:50
BEESAT 29 Mar 04:24:18 04:25:43 11° 272° (W) 04:27:08 436.000
ITAMSAT 1 29 Mar 04:36:46 04:41:55 63° 288° (WNW) 04:47:02 435.822/435.867
AO-7 29 Mar 04:45:35 04:53:56 87° 109° (ESE) 05:02:15 .
BEESAT 3 29 Mar 04:55:11 04:56:45 12° 34° (NE) 04:58:19 437.485
M-CUBED/EXP-1 PRIME 29 Mar 05:04:52 05:07:46 20° 58° (ENE) 05:10:50 437.505
KKS-1 29 Mar 05:11:29 05:15:27 31° 264° (W) 05:19:28 437.445
CUBESAT XI-V 29 Mar 05:12:57 05:17:17 42° 262° (W) 05:21:40 437.345
STRAND 1 29 Mar 05:37:36 05:39:37 12° 57° (ENE) 05:41:39 437.568
STARS 29 Mar 05:39:38 05:43:41 34° 263° (W) 05:47:44 437.465
AO-85 29 Mar 05:52:24 05:55:57 33° 243° (WSW) 05:59:36 145.980
XW-2F 29 Mar 06:01:53 06:04:05 15° 92° (E) 06:06:15 145.980 - 146.000
LilacSat-2 29 Mar 06:07:58 06:10:44 19° 93° (E) 06:13:29 437.200
DOVE 4 29 Mar 06:13:43 06:18:41 38° 96° (E) 06:23:29 437.250
NUDT-PHONESAT 29 Mar 06:18:27 06:21:09 19° 93° (E) 06:23:49 437.300
NO-84 29 Mar 06:25:19 06:28:11 74° 141° (SE) 06:31:02 435.350 FM
XW-2D 29 Mar 06:28:42 06:32:07 32° 97° (E) 06:35:31 145.860 - 145.880
KAITUO 1B 29 Mar 06:29:04 06:32:12 25° 96° (E) 06:35:19 145.475/437.950
BEESAT 3 29 Mar 06:31:04 06:35:06 71° 54° (NE) 06:39:05 437.485
XW-2B 29 Mar 06:34:39 06:38:10 37° 98° (E) 06:41:39 145.730 - 145.750
M-CUBED/EXP-1 PRIME 29 Mar 06:38:26 06:41:56 36° 258° (WSW) 06:45:45 437.505
AO-7 29 Mar 06:39:30 06:45:46 25° 309° (NW) 06:52:01 .
YUBILEINY 29 Mar 06:43:32 06:51:12 36° 85° (E) 06:58:52 435.215
XW-2C 29 Mar 06:44:52 06:48:32 50° 100° (E) 06:52:10 145.795 - 145.815
CUTE-I 29 Mar 06:46:39 06:51:49 46° 99° (E) 06:56:55 437.470
BEESAT 2 29 Mar 06:53:06 06:57:04 49° 51° (NE) 07:00:59 435.950
STRAND 1 29 Mar 07:12:49 07:17:58 83° 75° (ENE) 07:23:09 437.568
XW-2A 29 Mar 07:18:44 07:20:50 16° 93° (E) 07:22:56 145.665 - 145.685
XW-2F 29 Mar 07:34:55 07:38:24 38° 288° (WNW) 07:41:53 145.980 - 146.000
HO-68 29 Mar 07:35:46 07:42:09 33° 96° (E) 07:48:28 435.675
LilacSat-2 29 Mar 07:41:45 07:45:04 30° 290° (WNW) 07:48:24 437.200
DOVE 4 29 Mar 07:51:36 07:56:11 30° 294° (WNW) 08:00:42 437.250
NUDT-PHONESAT 29 Mar 07:51:54 07:55:07 29° 290° (WNW) 07:58:19 437.300
SEEDS 29 Mar 07:54:07 07:57:37 25° 95° (E) 08:01:07 437.485
KAITUO 1B 29 Mar 08:03:12 08:06:07 22° 292° (WNW) 08:09:01 145.475/437.950
XW-2D 29 Mar 08:03:28 08:06:06 18° 294° (WNW) 08:08:43 145.860 - 145.880
NO-84 29 Mar 08:04:04 08:06:01 17° 339° (NNW) 08:08:00 435.350 FM
CUTE 1.7 + AOD 2 29 Mar 08:06:10 08:10:18 52° 100° (E) 08:14:26 437.475
XW-2B 29 Mar 08:09:40 08:12:05 16° 294° (WNW) 08:14:29 145.730 - 145.750
BEESAT 3 29 Mar 08:10:43 08:12:07 12° 251° (WSW) 08:13:30 437.485
ZACube-1 29 Mar 08:16:41 08:16:53 10° 88° (E) 08:17:05 437.345
CUBEBUG 2 29 Mar 08:19:21 08:23:19 33° 96° (E) 08:27:09 437.445
XW-2C 29 Mar 08:20:36 08:22:18 13° 296° (WNW) 08:24:00 145.795 - 145.815
CUTE-I 29 Mar 08:27:15 08:31:35 26° 297° (WNW) 08:35:52 437.470
BEESAT 2 29 Mar 08:31:48 08:34:28 17° 249° (WSW) 08:37:07 435.950
YUBILEINY 29 Mar 08:39:13 08:47:40 53° 285° (WNW) 08:56:10 435.215
AO-73 29 Mar 08:40:55 08:43:49 18° 92° (E) 08:46:39 145.935
FO-29 29 Mar 08:46:59 08:52:29 22° 59° (ENE) 08:57:42 435.910
XW-2A 29 Mar 08:50:42 08:53:41 29° 289° (WNW) 08:56:38 145.665 - 145.685
STRAND 1 29 Mar 08:55:38 08:57:47 12° 272° (W) 08:59:56 437.568
AAUSAT CUBESAT 2 29 Mar 09:04:39 09:08:49 76° 102° (ESE) 09:12:58 437.432
PCSat 29 Mar 09:05:55 09:11:10 55° 115° (ESE) 09:16:29 145.827
TIGRISAT 29 Mar 09:14:37 09:18:40 30° 68° (ENE) 09:22:41 435.000
UWE-3 29 Mar 09:15:29 09:19:49 83° 103° (ESE) 09:24:00 435.000/436.395/437.385
PRISM 29 Mar 09:17:52 09:21:53 63° 73° (ENE) 09:25:56 437.425
HO-68 29 Mar 09:23:12 09:30:05 51° 294° (WNW) 09:36:56 435.675
UNISAT 6 29 Mar 09:25:20 09:29:43 40° 70° (ENE) 09:34:03 437.425
SEEDS 29 Mar 09:29:39 09:33:17 29° 291° (WNW) 09:36:56 437.485
Oscar 11 29 Mar 09:36:19 09:40:36 63° 101° (E) 09:44:52 .
CUTE 1.7 + AOD 2 29 Mar 09:43:12 09:45:44 16° 296° (WNW) 09:48:15 437.475
ZACube-1 29 Mar 09:49:29 09:53:42 72° 285° (WNW) 09:57:49 437.345
CUBEBUG 2 29 Mar 09:56:15 09:59:46 24° 294° (WNW) 10:03:12 437.445
DELFI C3 29 Mar 09:57:27 10:01:03 32° 96° (E) 10:04:38 145.870
AO-73 29 Mar 10:16:18 10:20:14 40° 289° (WNW) 10:24:06 145.935
AIST 2D 29 Mar 10:18:42 10:20:56 16° 66° (ENE) 10:23:09 435.315
FO-29 29 Mar 10:28:58 10:36:47 86° 255° (WSW) 10:44:01 435.910
LO-87 29 Mar 10:39:35 10:39:44 10° 89° (E) 10:39:56 145.935 - 145.965
AAUSAT CUBESAT 2 29 Mar 10:42:27 10:43:41 11° 299° (WNW) 10:44:54 437.432
YUBILEINY 29 Mar 10:45:08 10:46:58 11° 310° (NW) 10:48:49 435.215
NANOSAT C BR1 29 Mar 10:48:03 10:51:25 23° 66° (ENE) 10:54:47 145.865
PCSat 29 Mar 10:50:20 10:54:53 27° 315° (NW) 10:59:29 145.827
TIGRISAT 29 Mar 10:51:08 10:55:17 31° 264° (W) 10:59:24 435.000
EO-79 29 Mar 10:54:15 10:57:55 29° 68° (ENE) 11:01:37 145.935-145.965
UWE-3 29 Mar 10:54:44 10:55:34 10° 301° (WNW) 10:56:23 435.000/436.395/437.385
RS-15 29 Mar 10:55:45 11:04:58 27° 101° (E) 11:14:23 29.354- 29.394
PRISM 29 Mar 10:56:19 10:57:35 11° 270° (W) 10:58:51 437.425
UNISAT 6 29 Mar 11:02:52 11:06:32 23° 266° (W) 11:10:12 437.425
Oscar 11 29 Mar 11:14:01 11:16:14 14° 298° (WNW) 11:18:25 .
HO-68 29 Mar 11:14:18 11:16:10 11° 315° (NW) 11:18:02 435.675
NO-84 29 Mar 11:20:55 11:23:06 18° 23° (NNE) 11:25:22 435.350 FM
POLYITAN 1 29 Mar 11:22:43 11:26:55 57° 74° (ENE) 11:31:08 437.675
QB50P2 29 Mar 11:27:27 11:31:43 70° 74° (ENE) 11:35:59 145.880/145.840
DELFI C3 29 Mar 11:32:36 11:35:40 21° 293° (WNW) 11:38:43 145.870
DUCHIFAT 1 29 Mar 11:34:49 11:39:01 64° 74° (ENE) 11:43:15 145.980
BUGSAT 1 29 Mar 11:39:05 11:42:35 25° 67° (ENE) 11:46:05 437.445
VELOX 1 29 Mar 11:48:30 11:49:50 11° 89° (E) 11:51:09 145.980
AIST 2D 29 Mar 11:50:40 11:53:54 33° 263° (W) 11:57:08 435.315
SPROUT 29 Mar 12:08:02 12:10:42 16° 91° (E) 12:13:20 437.525
LO-87 29 Mar 12:09:57 12:13:33 56° 286° (WNW) 12:17:06 145.935 - 145.965
FO-29 29 Mar 12:17:43 12:22:32 18° 272° (W) 12:27:11 435.910
NANOSAT C BR1 29 Mar 12:23:03 12:26:57 34° 263° (W) 12:30:52 145.865
ESTCUBE 1 29 Mar 12:23:32 12:28:04 86° 103° (ESE) 12:32:36 437.505/2401.250
Oscar 19 29 Mar 12:23:48 12:28:06 28° 65° (ENE) 12:32:24 437.125/150
EO-79 29 Mar 12:30:00 12:33:38 27° 265° (W) 12:37:18 145.935-145.965
DX 1 29 Mar 12:49:41 12:53:00 21° 94° (E) 12:56:17 434.975-435.025
50 SAT 29 Mar 12:49:48 12:52:54 29° 97° (E) 12:56:00 437.505
NO-84 29 Mar 12:57:50 13:00:55 77° 220° (SW) 13:04:16 435.350 FM
POLYITAN 1 29 Mar 13:00:54 13:03:04 14° 270° (W) 13:05:14 437.675
Gurwin Techsat 1B 29 Mar 13:02:50 13:07:40 37° 67° (ENE) 13:12:31 435.225
RS-15 29 Mar 13:03:48 13:15:52 89° 302° (WNW) 13:28:22 29.354- 29.394
QB50P2 29 Mar 13:06:43 13:07:58 11° 271° (W) 13:09:13 145.880/145.840
DUCHIFAT 1 29 Mar 13:13:28 13:15:06 12° 270° (W) 13:16:46 145.980
BUGSAT 1 29 Mar 13:14:03 13:17:48 31° 264° (W) 13:21:37 437.445
VELOX 1 29 Mar 13:22:19 13:26:48 75° 285° (WNW) 13:31:14 145.980
UKube-1 29 Mar 13:22:51 13:26:46 32° 97° (E) 13:30:39 .
SPROUT 29 Mar 13:42:44 13:46:53 48° 288° (WNW) 13:50:59 437.525
AO-7 29 Mar 13:54:50 14:01:55 33° 55° (NE) 14:09:00 .
Oscar 19 29 Mar 14:02:29 14:07:15 39° 262° (W) 14:12:03 437.125/150
ESTCUBE 1 29 Mar 14:02:45 14:04:11 11° 301° (WNW) 14:05:38 437.505/2401.250
ITAMSAT 1 29 Mar 14:17:25 14:21:59 31° 65° (ENE) 14:26:33 435.822/435.867
50 SAT 29 Mar 14:23:17 14:25:45 18° 293° (WNW) 14:28:13 437.505
DX 1 29 Mar 14:25:13 14:29:19 39° 290° (WNW) 14:33:23 434.975-435.025
SO-50 29 Mar 14:25:39 14:30:18 80° 123° (ESE) 14:34:54 436.795
BEESAT 29 Mar 14:42:14 14:45:33 19° 92° (E) 14:48:50 436.000
Gurwin Techsat 1B 29 Mar 14:42:59 14:47:38 31° 264° (W) 14:52:20 435.225
UKube-1 29 Mar 14:59:06 15:02:39 25° 294° (WNW) 15:06:12 .
ITUPSAT 1 29 Mar 15:00:08 15:04:11 27° 95° (E) 15:08:12 437.325
RS-15 29 Mar 15:19:09 15:30:14 38° 331° (NNW) 15:41:30 29.354- 29.394
O/OREOS (USA 219) 29 Mar 15:19:56 15:22:03 13° 98° (E) 15:24:11 437.305
AO-7 29 Mar 15:45:55 15:54:10 65° 255° (WSW) 16:02:27 .
ITAMSAT 1 29 Mar 15:56:34 16:01:21 36° 263° (W) 16:06:09 435.822/435.867
MOZHAYETS 4 29 Mar 16:06:34 16:11:04 56° 100° (E) 16:15:32
SO-50 29 Mar 16:08:05 16:11:18 18° 322° (NW) 16:14:30 436.795
PCSat 29 Mar 16:10:23 16:13:09 14° 34° (NNE) 16:15:53 145.827
BEESAT 29 Mar 16:19:00 16:23:36 50° 289° (WNW) 16:28:11 436.000
CUTE-I 29 Mar 16:33:16 16:35:49 14° 56° (ENE) 16:38:21 437.470
ITUPSAT 1 29 Mar 16:37:45 16:42:03 35° 292° (WNW) 16:46:20 437.325
YUBILEINY 29 Mar 16:51:52 16:57:44 19° 59° (ENE) 17:03:36 435.215
LilacSat-2 29 Mar 16:52:15 16:54:02 13° 64° (ENE) 16:55:49 437.200
O/OREOS (USA 219) 29 Mar 16:56:20 17:00:50 66° 295° (WNW) 17:05:25 437.305
KKS-1 29 Mar 17:00:24 17:04:42 43° 99° (E) 17:08:57 437.445
NUDT-PHONESAT 29 Mar 17:00:30 17:01:58 12° 63° (ENE) 17:03:26 437.300
CUBESAT XI-V 29 Mar 17:07:41 17:12:06 42° 98° (E) 17:16:33 437.345
KAITUO 1B 29 Mar 17:11:12 17:13:31 16° 66° (ENE) 17:15:50 145.475/437.950
XW-2D 29 Mar 17:11:39 17:14:30 20° 67° (ENE) 17:17:21 145.860 - 145.880
XW-2B 29 Mar 17:17:29 17:20:30 23° 68° (ENE) 17:23:31 145.730 - 145.750
DOVE 4 29 Mar 17:20:03 17:24:32 41° 69° (ENE) 17:29:17 437.250
STARS 29 Mar 17:27:13 17:31:20 36° 98° (E) 17:35:23 437.465
XW-2C 29 Mar 17:27:27 17:30:47 30° 70° (ENE) 17:34:07 145.795 - 145.815
RS-15 29 Mar 17:37:26 17:47:34 28° 6° (N) 17:57:36 29.354- 29.394
MOZHAYETS 4 29 Mar 17:44:54 17:47:46 17° 298° (WNW) 17:50:38
AO-7 29 Mar 17:45:48 17:48:30 12° 275° (W) 17:51:12 .
PCSat 29 Mar 17:52:20 17:57:43 59° 55° (NE) 18:03:04 145.827
HO-68 29 Mar 18:06:19 18:12:18 30° 59° (ENE) 18:18:16 435.675
CUTE-I 29 Mar 18:09:40 18:15:03 86° 72° (ENE) 18:20:28 437.470
M-CUBED/EXP-1 PRIME 29 Mar 18:16:22 18:18:55 14° 95° (E) 18:21:28 437.505
XW-2F 29 Mar 18:16:27 18:20:13 71° 259° (WSW) 18:24:00 145.980 - 146.000
LilacSat-2 29 Mar 18:24:09 18:27:54 52° 260° (W) 18:31:38 437.200
NUDT-PHONESAT 29 Mar 18:31:47 18:35:27 54° 260° (W) 18:39:07 437.300
KKS-1 29 Mar 18:37:38 18:40:58 21° 296° (WNW) 18:44:16 437.445
ISS 29 Mar 18:43:32 18:44:42 11° 131° (SE) 18:45:52 437.550
KAITUO 1B 29 Mar 18:43:44 18:47:14 38° 262° (W) 18:50:45 145.475/437.950
XW-2D 29 Mar 18:45:10 18:48:32 30° 264° (W) 18:51:54 145.860 - 145.880
CUBESAT XI-V 29 Mar 18:45:39 18:49:13 22° 295° (WNW) 18:52:49 437.345
YUBILEINY 29 Mar 18:47:13 18:55:59 84° 82° (E) 19:04:44 435.215
SEEDS 29 Mar 18:47:20 18:50:29 21° 66° (ENE) 18:53:38 437.485
XW-2B 29 Mar 18:51:21 18:54:35 26° 264° (W) 18:57:50 145.730 - 145.750
DOVE 4 29 Mar 18:58:30 19:02:23 24° 268° (W) 19:06:28 437.250
CUTE 1.7 + AOD 2 29 Mar 18:59:52 19:03:50 42° 72° (ENE) 19:07:49 437.475
XW-2C 29 Mar 19:02:11 19:05:01 20° 266° (W) 19:07:52 145.795 - 145.815
STARS 29 Mar 19:03:58 19:07:28 23° 295° (WNW) 19:10:56 437.465
ZACube-1 29 Mar 19:12:56 19:14:36 12° 61° (ENE) 19:16:16 437.345
CUBEBUG 2 29 Mar 19:18:00 19:22:18 35° 69° (ENE) 19:26:33 437.445
XW-2A 29 Mar 19:22:31 19:25:57 78° 256° (WSW) 19:29:25 145.665 - 145.685
STRAND 1 29 Mar 19:22:33 19:26:45 25° 94° (E) 19:30:54 437.568
PCSat 29 Mar 19:36:38 19:40:39 21° 254° (WSW) 19:44:39 145.827
AO-73 29 Mar 19:37:33 19:40:42 19° 65° (ENE) 19:43:49 145.935
M-CUBED/EXP-1 PRIME 29 Mar 19:49:05 19:53:44 69° 291° (WNW) 19:58:22 437.505
RS-15 29 Mar 19:52:19 20:04:11 48° 39° (NE) 20:15:35 29.354- 29.394
HO-68 29 Mar 19:52:33 19:59:35 60° 258° (WSW) 20:06:40 435.675
CUTE-I 29 Mar 19:53:25 19:55:46 13° 272° (W) 19:58:07 437.470
AAUSAT CUBESAT 2 29 Mar 19:55:41 19:59:42 56° 74° (ENE) 20:03:44 437.432
Tancredo 1 29 Mar 20:01:29 20:04:37 71° 145° (SE) 20:07:47 437.200
AO-85 29 Mar 20:07:20 20:11:37 50° 120° (ESE) 20:15:38 145.980
UWE-3 29 Mar 20:12:51 20:17:31 78° 75° (ENE) 20:22:05 435.000/436.395/437.385
ISS 29 Mar 20:17:26 20:20:41 87° 151° (SSE) 20:23:58 437.550
SEEDS 29 Mar 20:22:09 20:25:57 35° 263° (W) 20:29:48 437.485
Oscar 11 29 Mar 20:32:01 20:36:13 56° 73° (ENE) 20:40:27 .
CUTE 1.7 + AOD 2 29 Mar 20:37:04 20:39:52 17° 268° (W) 20:42:41 437.475
DELFI C3 29 Mar 20:44:30 20:47:34 22° 67° (ENE) 20:50:39 145.870
YUBILEINY 29 Mar 20:45:42 20:51:38 21° 282° (WNW) 20:57:35 435.215
ZACube-1 29 Mar 20:45:43 20:50:16 81° 256° (WSW) 20:54:44 437.345
CUBEBUG 2 29 Mar 20:54:55 20:58:56 27° 266° (W) 21:02:55 437.445
STRAND 1 29 Mar 21:01:16 21:06:04 42° 291° (WNW) 21:10:50 437.568
AO-73 29 Mar 21:12:17 21:16:37 46° 261° (W) 21:20:54 145.935
SO-50 29 Mar 21:16:13 21:19:17 17° 37° (NE) 21:22:19 436.795
M-CUBED/EXP-1 PRIME 29 Mar 21:26:38 21:27:19 10° 308° (NW) 21:28:00 437.505
AAUSAT CUBESAT 2 29 Mar 21:33:43 21:35:31 13° 270° (W) 21:37:19 437.432
Tancredo 1 29 Mar 21:38:13 21:40:58 26° 344° (NNW) 21:43:44 437.200
AO-85 29 Mar 21:48:56 21:52:13 21° 317° (NW) 21:55:23 145.980
ESTCUBE 1 29 Mar 21:51:16 21:52:23 11° 59° (ENE) 21:53:30 437.505/2401.250
UWE-3 29 Mar 21:52:57 21:54:27 11° 272° (W) 21:55:57 435.000/436.395/437.385
ISS 29 Mar 21:54:40 21:57:28 25° 346° (NNW) 22:00:17 437.550
BEESAT 3 29 Mar 21:59:01 22:02:57 81° 122° (ESE) 22:06:57 437.485
RS-15 29 Mar 22:05:17 22:17:21 66° 245° (WSW) 22:28:51 29.354- 29.394
Oscar 11 29 Mar 22:10:25 22:12:42 14° 270° (W) 22:14:59 .
DELFI C3 29 Mar 22:18:46 22:22:13 29° 264° (W) 22:25:41 145.870
BEESAT 2 29 Mar 22:22:48 22:26:40 56° 120° (ESE) 22:30:36 435.950
PRISM 29 Mar 22:32:47 22:36:58 86° 100° (E) 22:41:08 437.425
TIGRISAT 29 Mar 22:40:48 22:45:05 49° 99° (E) 22:49:14 435.000
LO-87 29 Mar 22:46:53 22:50:27 67° 75° (ENE) 22:54:04 145.935 - 145.965
VELOX 1 29 Mar 22:46:58 22:49:00 13° 60° (ENE) 22:51:03 145.980
UNISAT 6 29 Mar 22:52:02 22:56:27 72° 102° (ESE) 23:00:44 437.425
SO-50 29 Mar 22:55:47 23:00:19 81° 237° (WSW) 23:04:48 436.795
SPROUT 29 Mar 23:03:01 23:05:36 16° 63° (ENE) 23:08:11 437.525
QB50P2 29 Mar 23:14:23 23:14:31 10° 88° (E) 23:14:40 145.880/145.840
AIST 2D 29 Mar 23:15:13 23:17:19 15° 92° (E) 23:19:24 435.315
Tancredo 1 29 Mar 23:15:22 23:17:48 20° 4° (N) 23:20:15 437.200
FO-29 29 Mar 23:23:26 23:29:22 76° 103° (ESE) 23:34:42 435.910
ESTCUBE 1 29 Mar 23:24:00 23:28:28 89° 246° (WSW) 23:32:59 437.505/2401.250
50 SAT 29 Mar 23:25:31 23:27:31 15° 65° (ENE) 23:29:32 437.505
ISS 29 Mar 23:32:05 23:34:41 21° 6° (N) 23:37:18 437.550
BEESAT 3 29 Mar 23:38:46 23:41:05 15° 322° (NW) 23:43:24 437.485
DX 1 29 Mar 23:46:31 23:49:51 22° 65° (ENE) 23:53:13 434.975-435.025
BEESAT 2 30 Mar 00:01:54 00:04:46 19° 319° (NW) 00:07:40 435.950
NANOSAT C BR1 30 Mar 00:05:44 00:09:33 32° 97° (E) 00:13:20 145.865
PRISM 30 Mar 00:11:22 00:11:34 10° 301° (WNW) 00:11:47 437.425
EO-79 30 Mar 00:12:33 00:16:36 42° 98° (E) 00:20:36 145.935-145.965
UKube-1 30 Mar 00:18:26 00:22:17 32° 68° (ENE) 00:26:09 .
TIGRISAT 30 Mar 00:18:31 00:21:22 17° 297° (WNW) 00:24:10 435.000
VELOX 1 30 Mar 00:20:27 00:24:51 72° 258° (WSW) 00:29:19 145.980
RS-15 30 Mar 00:21:31 00:27:07 15° 267° (W) 00:32:40 29.354- 29.394
UNISAT 6 30 Mar 00:30:38 00:32:33 13° 300° (WNW) 00:34:26 437.425
SPROUT 30 Mar 00:36:51 00:41:04 55° 260° (W) 00:45:19 437.525
